• In Hungary
  • List of Countries
  • For 7 days
  • Water Temperature
  • Satellite Maps
  • Weather Map
  • News
  • Weather Widgets
  • user-avatar
    Login

    Hourly Weather Boskovice

    Today, 22 October, Sunday

    Time Temperature Precipitation Wind Pressure Humidity
    00:00 +9°C° 0 mm 1 mps 721 mmHg 92%
    01:00 +9°C° 0 mm 1 mps 720 mmHg 92%
    02:00 +9°C° 0.1 mm 1 mps 720 mmHg 92%
    03:00 +9°C° 0.1 mm 1 mps 720 mmHg 92%
    04:00 +9°C° 0.1 mm 1 mps 720 mmHg 92%
    05:00 +8°C° 0.5 mm 2 mps 720 mmHg 92%
    06:00 +8°C° 0.5 mm 2 mps 720 mmHg 92%
    07:00 +8°C° 0 mm 2 mps 720 mmHg 89%
    08:00 +8°C° 1.5 mm 3 mps 721 mmHg 89%
    09:00 +8°C° 1.5 mm 3 mps 721 mmHg 89%
    10:00 +7°C° 1.5 mm 4 mps 721 mmHg 89%
    11:00 +8°C° 0.6 mm 4 mps 721 mmHg 86%
    12:00 +10°C° 0.6 mm 3 mps 721 mmHg 83%
    13:00 +10°C° 0 mm 3 mps 721 mmHg 80%
    14:00 +10°C° 0.1 mm 3 mps 721 mmHg 81%
    15:00 +9°C° 0.1 mm 2 mps 720 mmHg 81%
    16:00 +9°C° 0.1 mm 2 mps 720 mmHg 81%
    17:00 +9°C° 0 mm 2 mps 720 mmHg 82%
    18:00 +9°C° 0 mm 2 mps 720 mmHg 83%
    19:00 +8°C° 0 mm 2 mps 720 mmHg 85%
    20:00 +8°C° 0 mm 2 mps 720 mmHg 85%
    21:00 +7°C° 0 mm 2 mps 720 mmHg 85%
    22:00 +7°C° 0 mm 2 mps 720 mmHg 85%
    23:00 +5°C° 0 mm 3 mps 720 mmHg 86%

    Tomorrow, 23 October, Monday

    Time Temperature Precipitation Wind Pressure Humidity
    00:00 +5°C° 0 mm 3 mps 720 mmHg 86%
    01:00 +5°C° 0 mm 3 mps 720 mmHg 87%
    02:00 +5°C° 0 mm 3 mps 719 mmHg 87%
    03:00 +5°C° 0 mm 3 mps 719 mmHg 88%
    04:00 +5°C° 0 mm 3 mps 719 mmHg 88%
    05:00 +5°C° 0 mm 3 mps 719 mmHg 89%
    06:00 +5°C° 0 mm 3 mps 719 mmHg 89%
    07:00 +5°C° 0 mm 3 mps 719 mmHg 90%
    08:00 +5°C° 0 mm 4 mps 719 mmHg 87%
    09:00 +6°C° 0 mm 4 mps 719 mmHg 83%
    10:00 +7°C° 0 mm 5 mps 720 mmHg 80%
    11:00 +7°C° 0.1 mm 5 mps 720 mmHg 80%
    12:00 +7°C° 0.1 mm 5 mps 720 mmHg 80%
    13:00 +7°C° 0.1 mm 6 mps 720 mmHg 79%
    14:00 +7°C° 0 mm 6 mps 720 mmHg 79%
    15:00 +7°C° 0 mm 6 mps 720 mmHg 79%
    16:00 +7°C° 0 mm 6 mps 720 mmHg 79%
    17:00 +7°C° 0 mm 5 mps 721 mmHg 80%
    18:00 +6°C° 0 mm 5 mps 721 mmHg 82%
    19:00 +6°C° 0 mm 5 mps 721 mmHg 84%
    20:00 +6°C° 0 mm 5 mps 722 mmHg 85%
    21:00 +6°C° 0 mm 4 mps 722 mmHg 86%
    22:00 +6°C° 0 mm 4 mps 722 mmHg 87%
    23:00 +5°C° 0 mm 4 mps 723 mmHg 88%

    Day after tomorrow, 24 October, Tuesday

    Time Temperature Precipitation Wind Pressure Humidity
    00:00 +5°C° 0 mm 4 mps 723 mmHg 89%
    01:00 +5°C° 0 mm 4 mps 723 mmHg 90%
    02:00 +5°C° 0 mm 4 mps 724 mmHg 90%
    03:00 +5°C° 0 mm 4 mps 724 mmHg 90%
    04:00 +5°C° 0 mm 4 mps 724 mmHg 91%
    05:00 +5°C° 0 mm 3 mps 725 mmHg 91%
    06:00 +5°C° 0 mm 3 mps 725 mmHg 92%
    07:00 +5°C° 0 mm 3 mps 725 mmHg 92%
    08:00 +7°C° 0 mm 3 mps 726 mmHg 87%
    09:00 +8°C° 0 mm 3 mps 726 mmHg 82%
    10:00 +10°C° 0 mm 4 mps 727 mmHg 76%
    11:00 +10°C° 0 mm 4 mps 727 mmHg 75%
    12:00 +10°C° 0 mm 3 mps 727 mmHg 74%
    13:00 +11°C° 0 mm 3 mps 727 mmHg 73%
    14:00 +10°C° 0 mm 3 mps 727 mmHg 75%
    15:00 +10°C° 0 mm 2 mps 727 mmHg 76%
    16:00 +10°C° 0 mm 2 mps 727 mmHg 78%
    17:00 +9°C° 0 mm 2 mps 727 mmHg 82%
    18:00 +9°C° 0 mm 1 mps 727 mmHg 86%
    19:00 +8°C° 0 mm 1 mps 727 mmHg 90%
    20:00 +7°C° 0 mm 1 mps 728 mmHg 91%
    21:00 +7°C° 0 mm 1 mps 728 mmHg 91%
    22:00 +7°C° 0 mm 1 mps 728 mmHg 92%
    23:00 +6°C° 0 mm 1 mps 728 mmHg 92%

    25 October, Wednesday

    Time Temperature Precipitation Wind Pressure Humidity
    00:00 +5°C° 0 mm 0 mps 728 mmHg 92%
    01:00 +5°C° 0 mm 0 mps 728 mmHg 92%
    02:00 +5°C° 0 mm 0 mps 728 mmHg 92%
    03:00 +5°C° 0 mm 0 mps 727 mmHg 93%
    04:00 +6°C° 0 mm 1 mps 727 mmHg 93%
    05:00 +6°C° 0 mm 1 mps 727 mmHg 93%
    06:00 +6°C° 0 mm 1 mps 727 mmHg 93%
    07:00 +6°C° 0 mm 1 mps 727 mmHg 93%
    08:00 +8°C° 0 mm 1 mps 727 mmHg 91%
    09:00 +9°C° 0 mm 1 mps 727 mmHg 88%
    10:00 +10°C° 0 mm 1 mps 727 mmHg 86%
    11:00 +12°C° 0 mm 2 mps 727 mmHg 83%
    12:00 +13°C° 0 mm 2 mps 727 mmHg 80%
    13:00 +13°C° 0 mm 3 mps 727 mmHg 77%
    14:00 +14°C° 0 mm 2 mps 727 mmHg 79%
    15:00 +14°C° 0 mm 2 mps 727 mmHg 82%
    16:00 +14°C° 0 mm 2 mps 726 mmHg 85%
    17:00 +13°C° 0 mm 2 mps 727 mmHg 87%
    18:00 +13°C° 0 mm 2 mps 727 mmHg 89%
    19:00 +12°C° 0 mm 2 mps 727 mmHg 91%
    20:00 +12°C° 0 mm 2 mps 727 mmHg 91%
    21:00 +12°C° 0 mm 2 mps 727 mmHg 92%
    22:00 +10°C° 0 mm 2 mps 727 mmHg 93%
    23:00 +10°C° 0 mm 2 mps 727 mmHg 93%

    26 October, Thursday

    Time Temperature Precipitation Wind Pressure Humidity
    00:00 +10°C° 0 mm 2 mps 727 mmHg 94%
    01:00 +9°C° 0 mm 2 mps 727 mmHg 95%
    02:00 +9°C° 0 mm 2 mps 727 mmHg 95%
    03:00 +9°C° 0 mm 2 mps 727 mmHg 95%
    04:00 +10°C° 0 mm 1 mps 727 mmHg 95%
    05:00 +10°C° 0 mm 1 mps 727 mmHg 95%
    06:00 +10°C° 0 mm 1 mps 727 mmHg 95%
    07:00 +10°C° 0 mm 1 mps 727 mmHg 95%
    08:00 +10°C° 0 mm 2 mps 727 mmHg 89%
    09:00 +13°C° 0 mm 2 mps 727 mmHg 83%
    10:00 +14°C° 0 mm 2 mps 727 mmHg 77%
    11:00 +14°C° 0 mm 3 mps 726 mmHg 72%
    12:00 +15°C° 0 mm 4 mps 726 mmHg 67%
    13:00 +17°C° 0 mm 4 mps 725 mmHg 63%
    14:00 +17°C° 0 mm 4 mps 725 mmHg 67%
    15:00 +16°C° 0 mm 3 mps 725 mmHg 71%
    16:00 +16°C° 0 mm 3 mps 724 mmHg 75%
    17:00 +14°C° 0 mm 3 mps 724 mmHg 78%
    18:00 +13°C° 0 mm 3 mps 724 mmHg 82%
    19:00 +12°C° 0 mm 3 mps 724 mmHg 85%
    20:00 +12°C° 0 mm 3 mps 724 mmHg 86%
    21:00 +12°C° 0 mm 3 mps 724 mmHg 86%
    22:00 +11°C° 0 mm 3 mps 723 mmHg 87%
    23:00 +11°C° 0 mm 3 mps 723 mmHg 89%

    27 October, Friday

    Time Temperature Precipitation Wind Pressure Humidity
    00:00 +11°C° 0 mm 3 mps 723 mmHg 91%
    01:00 +11°C° 0 mm 3 mps 722 mmHg 92%
    02:00 +10°C° 0 mm 3 mps 722 mmHg 93%
    03:00 +10°C° 0 mm 3 mps 721 mmHg 93%
    04:00 +10°C° 0 mm 3 mps 720 mmHg 93%
    05:00 +11°C° 0 mm 4 mps 720 mmHg 92%
    06:00 +11°C° 0 mm 4 mps 719 mmHg 91%
    07:00 +11°C° 0 mm 4 mps 719 mmHg 90%
    08:00 +12°C° 0.1 mm 5 mps 718 mmHg 84%
    09:00 +12°C° 0.1 mm 7 mps 718 mmHg 78%
    10:00 +13°C° 0.1 mm 8 mps 718 mmHg 71%
    11:00 +12°C° 0.4 mm 8 mps 718 mmHg 72%
    12:00 +11°C° 0.4 mm 9 mps 718 mmHg 73%
    13:00 +11°C° 0.4 mm 9 mps 717 mmHg 74%
    14:00 +10°C° 0.1 mm 8 mps 718 mmHg 74%
    15:00 +9°C° 0.1 mm 8 mps 718 mmHg 73%
    16:00 +8°C° 0.1 mm 7 mps 719 mmHg 72%
    17:00 +6°C° 0 mm 7 mps 719 mmHg 74%
    18:00 +7°C° 0 mm 6 mps 720 mmHg 75%
    19:00 +7°C° 0 mm 6 mps 720 mmHg 77%
    20:00 +7°C° 0 mm 6 mps 720 mmHg 77%
    21:00 +5°C° 0 mm 6 mps 720 mmHg 78%
    22:00 +5°C° 0 mm 7 mps 720 mmHg 78%
    23:00 +5°C° 0 mm 6 mps 720 mmHg 79%
    Show more